Overview Statistics Trail Chart Weather Telemetry Raw packets
 

This is the latest recevied weather packets stored in our database for station/object VO2AGO. If no packets are shown the sender has not sent any weather packets the latest 10 day(s).

<< 58 59 60 61 62 63 64 >>
Time Temp. Humidity Pressure Rain* Wind** Luminosity Snow
1777472452 10.56° C 64% 101.2 hPa 0 mm 0 m/s 1936 W/m² -
1777472001 10.56° C 61% 101.2 hPa 0 mm 0 m/s 1682 W/m² -
1777471552 10.56° C - - - 0 m/s 1117 W/m² -
1777471102 10.56° C - - - 0 m/s 1108 W/m² -
1777470652 10° C - - - 0 m/s 1122 W/m² -
1777470201 10° C 64% 101.3 hPa 0 mm 0 m/s 1988 W/m² -
1777469751 10° C - - - 0 m/s 1108 W/m² -
1777469308 10° C 66% 101.3 hPa 0 mm 0 m/s 1968 W/m² -
1777468852 8.89° C - - - 0 m/s 1108 W/m² -
1777468402 8.89° C - - - 0 m/s 1100 W/m² -
1777467951 8.89° C 75% 101.3 hPa 0 mm 0 m/s 1938 W/m² -
1777467502 8.33° C 78% 101.3 hPa 0 mm 0 m/s 1812 W/m² -
1777467052 8.33° C 80% 101.3 hPa 0 mm 0 m/s 1664 W/m² -
1777466603 8.33° C 78% 101.3 hPa 0 mm 0 m/s 1312 W/m² -
1777466151 8.33° C 78% 101.3 hPa 0 mm 0 m/s 1442 W/m² -
1777465701 8.33° C 79% 101.3 hPa 0 mm 0 m/s 890 W/m² -
1777465252 7.78° C 84% 101.4 hPa 0 mm 0 m/s 1233 W/m² -
1777464802 7.78° C 87% 101.4 hPa 0 mm 0 m/s 1139 W/m² -
1777464352 7.78° C 83% 101.4 hPa 0 mm 0 m/s 1331 W/m² -
1777463901 7.78° C 86% 101.4 hPa 0 mm 0 m/s 981 W/m² -
1777463452 7.22° C 88% 101.4 hPa 0 mm 0 m/s 1135 W/m² -
1777463002 7.22° C 94% 101.4 hPa 0 mm 0 m/s 1132 W/m² -
1777462552 7.22° C 88% 101.4 hPa 0 mm 0 m/s 796 W/m² -
1777462101 7.22° C 92% 101.4 hPa 0 mm 0 m/s 1042 W/m² -
1777461651 7.22° C 91% 101.4 hPa 0 mm 0 m/s 939 W/m² -

* Rain latest hour (hover to see other rain measurements)
** Current wind speed in m/s (hover to see current wind gust speed)